Date,TemperatureHighF,TemperatureAvgF,TemperatureLowF,DewpointHighF,DewpointAvgF,DewpointLowF,HumidityHigh,HumidityAvg,HumidityLow,PressureMaxIn,PressureMinIn,WindSpeedMaxMPH,WindSpeedAvgMPH,GustSpeedMaxMPH,PrecipitationSumIn
2013-4-1,52,34,22,27,20,17,92,59,29,30.13,30.07,11,1,0,0.00
2013-4-2,61,41,24,26,20,16,77,47,22,30.11,29.94,13,1,13,0.00
2013-4-3,55,42,30,28,24,19,74,51,29,30.04,29.92,15,1,15,0.00
2013-4-4,59,45,30,33,29,22,78,54,35,30.03,29.72,14,1,14,0.00
2013-4-5,53,44,31,38,29,21,81,55,37,29.77,29.56,18,2,19,0.05
2013-4-6,55,40,27,30,25,21,80,58,32,29.83,29.73,15,1,15,0.00
2013-4-7,51,37,27,35,28,23,90,72,38,29.76,29.50,22,2,22,0.04
2013-4-8,32,17,10,29,13,5,90,83,75,30.37,29.60,16,3,16,0.00
2013-4-9,20,12,4,14,7,0,92,81,75,30.59,30.36,13,1,13,0.05
2013-4-10,39,25,4,25,16,-1,86,71,48,30.51,29.93,13,1,13,0.11
2013-4-11,46,37,26,29,25,19,90,65,37,29.97,29.83,20,3,20,0.03
2013-4-12,42,31,20,26,21,14,87,67,47,30.03,29.71,15,2,15,0.03
2013-4-13,50,35,24,30,23,14,89,63,36,29.72,29.30,18,2,18,0.13
2013-4-14,32,22,11,20,12,5,86,67,36,29.96,29.55,30,3,30,0.04
2013-4-15,19,15,9,14,11,4,92,82,72,30.29,29.95,14,2,14,0.06
2013-4-16,19,15,11,14,11,6,92,82,75,30.44,30.22,14,2,14,0.00
2013-4-17,23,12,-1,13,6,-5,84,75,53,30.52,30.43,22,2,22,0.00
2013-4-18,38,25,5,23,12,0,81,60,38,30.50,30.24,17,2,17,0.06
2013-4-19,45,34,19,30,22,14,82,63,44,30.24,29.85,10,1,0,0.01
2013-4-20,49,37,28,33,25,19,81,63,35,29.96,29.84,12,1,12,0.04
2013-4-21,33,24,17,25,21,14,90,85,72,30.27,29.95,14,2,14,0.00
2013-4-22,20,15,4,16,10,0,93,84,79,30.60,30.26,12,2,12,0.16
2013-4-23,33,21,6,22,11,0,87,66,45,30.58,30.33,11,1,0,0.10
2013-4-24,46,32,17,26,18,11,87,59,30,30.35,30.01,23,2,23,0.02
2013-4-25,57,46,35,23,17,11,51,32,21,30.03,29.78,20,4,20,0.00
2013-4-26,65,47,33,30,23,15,59,40,16,30.08,29.93,13,1,13,0.00
2013-4-27,66,52,39,29,24,17,60,37,19,30.07,29.75,18,2,18,0.00
2013-4-28,54,44,36,40,30,25,83,59,37,29.85,29.74,16,1,16,0.05
2013-4-29,40,33,29,33,29,23,96,85,72,29.65,29.43,16,2,16,0.12
2013-4-30,37,26,20,24,18,9,88,73,37,30.30,29.64,23,2,23,0.06